Weather History for Beaufort MCAS, SC

Change the Weather History Date:

Sunday, February 17, 2013

  Actual Average Record
Temperature  
Mean Temperature 39 °F -  
Max Temperature 48 °F 63 °F 60 °F (2014)
Min Temperature 28 °F 43 °F 37 °F (2014)
Degree Days  
Heating Degree Days 26    
Moisture  
Dew Point 13 °F    
Average Humidity 40    
Maximum Humidity 69    
Minimum Humidity 16    
Precipitation  
Precipitation 0.00 in - - ()
Sea Level Pressure  
Sea Level Pressure 30.23 in    
Wind  
Wind Speed 10 mph (WNW)    
Max Wind Speed 16 mph    
Max Gust Speed 30 mph    
Visibility 10 miles    
Events      
Averages and records for this station are not official NWS values.
T = Trace of Precipitation, MM = Missing Value Source: NWS Daily Summary

Daily Weather History Graph

Daily Weather History Graph

Search for Another Location

Airport:

Trip Planner

Search our weather history database for the weather conditions in past years. The results will help you decide how hot, cold, wet, or windy it might be!

Date:

Astronomy

Feb. 17, 2013 Rise Set
Actual Time 7:03 AM EST 6:10 PM EST
Civil Twilight 6:38 AM EST 6:35 PM EST
Nautical Twilight 6:09 AM EST 7:04 PM EST
Astronomical Twilight 5:41 AM EST 7:33 PM EST
Moon 11:21 AM EST (2/17) 12:39 AM EST (2/17)
Length of Visible Light 11h 57m
Length of Day
11h 07m
Waxing Crescent, 49% of the Moon is Illuminated
Feb 17
Waxing Crescent
Feb 17
First Quarter
Feb 25
Full
Mar 4
Last Quarter
Mar 11
New

Hourly Weather History & Observations

Time (EST) Temp. Windchill Dew Point Humidity Pressure Visibility Wind Dir Wind Speed Gust Speed Precip Events Conditions
12:56 AM 36.0 °F 28.0 °F 12.9 °F 39% 30.11 in 10.0 mi WNW 11.5 mph - N/A   Clear
1:56 AM 35.1 °F 26.9 °F 14.0 °F 42% 30.12 in 10.0 mi NW 11.5 mph - N/A   Clear
2:56 AM 34.0 °F 26.6 °F 14.0 °F 44% 30.12 in 10.0 mi NW 9.2 mph - N/A   Clear
3:56 AM 33.1 °F 24.4 °F 15.1 °F 48% 30.13 in 10.0 mi WNW 11.5 mph - N/A   Clear
4:56 AM 32.0 °F 24.2 °F 15.1 °F 50% 30.15 in 10.0 mi WNW 9.2 mph - N/A   Clear
5:56 AM 30.9 °F 24.3 °F 15.1 °F 52% 30.18 in 10.0 mi NW 6.9 mph - N/A   Clear
6:56 AM 30.9 °F 23.5 °F 15.1 °F 52% 30.20 in 10.0 mi NW 8.1 mph - N/A   Clear
7:56 AM 32.0 °F 24.8 °F 15.1 °F 50% 30.24 in 10.0 mi WNW 8.1 mph - N/A   Clear
8:56 AM 35.1 °F 26.9 °F 14.0 °F 42% 30.25 in 10.0 mi WNW 11.5 mph - N/A   Clear
9:56 AM 37.9 °F 29.2 °F 9.0 °F 30% 30.27 in 10.0 mi NW 15.0 mph - N/A   Clear
10:56 AM 41.0 °F 33.9 °F 9.0 °F 27% 30.27 in 10.0 mi NNW 12.7 mph 21.9 mph N/A   Clear
11:56 AM 44.1 °F 36.8 °F 6.1 °F 21% 30.26 in 10.0 mi NNW 16.1 mph - N/A   Clear
12:56 PM 46.0 °F 39.6 °F 6.1 °F 20% 30.24 in 10.0 mi NNW 15.0 mph 21.9 mph N/A   Clear
1:56 PM 46.9 °F - 5.0 °F 18% 30.23 in 10.0 mi NW 9.2 mph 20.7 mph N/A   Clear
2:56 PM 48.0 °F - 3.9 °F 16% 30.22 in 10.0 mi NW 13.8 mph 29.9 mph N/A   Clear
3:56 PM 48.9 °F - 7.0 °F 18% 30.22 in 10.0 mi WNW 12.7 mph 20.7 mph N/A   Clear
4:56 PM 48.0 °F - 6.1 °F 18% 30.23 in 10.0 mi WNW 12.7 mph - N/A   Clear
5:56 PM 45.0 °F 39.7 °F 10.0 °F 24% 30.25 in 10.0 mi West 10.4 mph - N/A   Clear
6:56 PM 41.0 °F 38.0 °F 14.0 °F 33% 30.27 in 10.0 mi West 4.6 mph - N/A   Clear
7:56 PM 36.0 °F 31.1 °F 18.0 °F 48% 30.29 in 10.0 mi WSW 5.8 mph - N/A   Clear
8:56 PM 34.0 °F 31.0 °F 21.0 °F 59% 30.31 in 10.0 mi SW 3.5 mph - N/A   Clear
9:56 PM 32.0 °F 27.5 °F 21.9 °F 66% 30.33 in 10.0 mi WSW 4.6 mph - N/A   Clear
10:56 PM 30.0 °F 25.2 °F 21.0 °F 69% 30.34 in 10.0 mi WSW 4.6 mph - N/A   Clear
11:56 PM 28.9 °F 23.9 °F 19.9 °F 69% 30.34 in 10.0 mi WSW 4.6 mph - N/A   Clear